カタログに戻る

STARLINK-5617

運用中通信VLEO
NORAD 55753·PAYLOAD·🇺🇸 United States

打ち上げ Mar 3, 2023 から Vandenberg Space Force Base

Loading…

次のパス (今後24時間)

TLE

最新Source: CelesTrak SupGP

元期: Sep 14, 2026, 22:20 UTC

1 55753C 23028N   26257.93104167  .00002159  00000+0  18093-3 0  2570
2 55753  70.0004 127.2811 0002674 271.5554 228.7445 14.98323671    15

AllMySatでSTARLINK-5617をリアルタイム追跡

Download on the App Store